User: anonymous   Login
Location: Unspecified
(0.0000°N, 0.0000°E)
Time: 19:01:47
(UTC+02:00)
Language:

YAOGAN 3 - Orbit

View from above orbital plane
View from above orbital plane
View from above satellite
View from above satellite

Ground track
Ground track

The orbit data is extracted from the following two-line orbital elements,

1 32289U 07055A   16183.06074452 -.00000030  00000-0  29046-5 0  9998
2 32289  97.9854 180.1667 0001615  74.8410 285.2970 14.80709555466771
Epoch (UTC): 01 July 2016 01:27:28
Eccentricity: 0.0001615
inclination: 97.9854°
perigee height: 626 km
apogee height: 628 km
right ascension of ascending node: 180.1667°
argument of perigee: 74.8410°
revolutions per day: 14.80709555
mean anomaly at epoch: 285.2970°
orbit number at epoch: 46677

The dashed part of the orbit path shows where the satellite is in the earth's shadow,  

DLR